This demonstration page uses our WeatherBlox Daily Observations layout. Learn more.

Left ArrowRight Arrow

44.8408, -93.29828

Hourly Observations for March 13, 2020

Temp ( °F °C ) Dew Point ( °F °C ) Humidity (%) Winds ( mph kmh ) Pressure ( in mb ) Visibility ( mi km ) Precip ( " mm )
12:53 am 00:53 Mostly Clear 31 -0.6 17 -8.3 56 56 WNW 14 22 29.98 1015 10 16 0.00 0.00
1:53 am 01:53 Partly Cloudy 30 -1.1 16 -8.9 56 56 WNW 16 26 30.01 1016 10 16 0.00 0.00
2:53 am 02:53 Clear 29 -1.7 17 -8.3 61 61 WNW 12 19 30.04 1017 10 16 0.00 0.00
3:53 am 03:53 Mostly Clear 29 -1.7 17 -8.3 61 61 WNW 13 20 30.06 1018 10 16 0.00 0.00
4:53 am 04:53 Partly Cloudy 29 -1.7 18 -7.8 63 63 W 12 19 30.08 1019 10 16 0.00 0.00
5:53 am 05:53 Mostly Cloudy 29 -1.7 19 -7.2 66 66 WNW 16 26 30.10 1019 10 16 0.00 0.00
6:20 am 06:20 Mostly Cloudy 29 -1.7 19 -7.2 66 66 NW 17 28 30.14 1021 10 16 0.00 0.00
6:53 am 06:53 Mostly Cloudy 28 -2.2 18 -7.8 66 66 WNW 17 28 30.13 1020 10 16 0.00 0.00
7:53 am 07:53 Partly Cloudy 27 -2.8 17 -8.3 66 66 NW 14 22 30.15 1021 10 16 0.00 0.00
8:53 am 08:53 Mostly Sunny 28 -2.2 16 -8.9 60 60 NW 13 20 30.19 1022 10 16 0.00 0.00
9:53 am 09:53 Mostly Sunny 29 -1.7 14 -10 54 54 NW 15 24 30.22 1023 10 16 0.00 0.00
10:53 am 10:53 Mostly Sunny 32 0 15 -9.4 50 50 NW 20 31 30.25 1024 10 16 0.00 0.00
11:53 am 11:53 Mostly Sunny 34 1.1 15 -9.4 46 46 NW 16 26 30.27 1025 10 16 0.00 0.00
12:53 pm 12:53 Mostly Cloudy 37 2.8 15 -9.4 41 41 WNW 14 22 30.30 1026 10 16 0.00 0.00
1:53 pm 13:53 Partly Cloudy 38 3.3 15 -9.4 39 39 NW 13 20 30.31 1026 10 16 0.00 0.00
2:53 pm 14:53 Partly Cloudy 39 3.9 16 -8.9 39 39 W 15 24 30.32 1027 10 16 0.00 0.00
3:53 pm 15:53 Partly Cloudy 39 3.9 13 -10.6 34 34 WNW 13 20 30.35 1028 10 16 0.00 0.00
4:53 pm 16:53 Partly Cloudy 38 3.3 14 -10 37 37 WNW 15 24 30.37 1028 10 16 0.00 0.00
5:53 pm 17:53 Partly Cloudy 35 1.7 14 -10 42 42 W 15 24 30.39 1029 10 16 0.00 0.00
6:53 pm 18:53 Partly Cloudy 33 0.6 15 -9.4 47 47 NW 10 17 30.42 1030 10 16 0.00 0.00
7:53 pm 19:53 Partly Cloudy 31 -0.6 15 -9.4 52 52 NW 9 15 30.44 1031 10 16 0.00 0.00
8:53 pm 20:53 Partly Cloudy 30 -1.1 15 -9.4 54 54 NW 12 19 30.47 1032 10 16 0.00 0.00
9:53 pm 21:53 Mostly Cloudy 28 -2.2 15 -9.4 58 58 NW 9 15 30.50 1033 10 16 0.00 0.00
10:53 pm 22:53 Mostly Cloudy 28 -2.2 14 -10 56 56 NNW 13 20 30.52 1034 10 16 0.00 0.00
11:53 pm 23:53 Mostly Cloudy 26 -3.3 14 -10 60 60 NNW 9 15 30.54 1034 10 16 0.00 0.00

Powered by AerisWeather